STARLINK-34348, 64152

Orbit data source: Space-Track

STARLINK-34348, 64152 is a payload satellite owned by SpaceX/Seattle (US) in SSO that was launched on Tue, 27 May 2025 UTC via an FALCON 9 launch vehicle from the Air Force Western Test Range (AFWTR). Payload-class satellites include a variety of spacecraft equipped with specific instruments for various scientific and technological missions. These include communications satellites like Starlink; space stations such as the ISS; scientific satellites like the Hubble; Earth observation satellites from companies like Planet Labs, Umbra, and HawkEye 360; GPS; miniature CubeSats for education and research; and military/defense satellites.

Loading next visibility...
Identifier
64152, 2025-112G
Orbit
SSO
Country
Flag of USUS
Related business
Manufacturer
SpaceX/Seattle
Mission
Operational Commercial Communications
Bus & Motor
STARLINK V2MO, Unknown motor
Mass
575 kg wet, ~530 kg dry
Launch date (UTC)
2025-05-27 (1 year ago)
Launch vehicle
FALCON 9
Launch site
Air Force Western Test Range (AFWTR)
Object type
Payload
Rocket body
Debris
Shape & HBR
Box + 2 Pan, 17.7 m
Radar Cross Section
36.964 m², Large (>1 m²)

Expand to show TLE details & history
Last TLE update: 8 hours ago

TLE from 8 hours ago
0 STARLINK-34348
1 64152U 25112G   26193.07060174 -.00010854  00000-0 -74922-3 0  9992
2 64152  97.2850 242.1686 0001371 111.8994 248.2379 15.05667079 62026
Epoch: 2026-07-12T01:41Z
TLE epoch observation values (Epoch: 2026-07-12T01:41:39.990Z)
Latitude
-0.00007°
Longitude
-73.22276°
Altitude
552.885 km
Speed
7.585 km/s
True Right ascension
16h 08m 40s
True Declination
0° 00' 00"
Sunlit
Object was in full shadow at epoch
Visualization orbit readout
Latitude
Unknown
Longitude
Unknown
Altitude
Unknown
Speed
Unknown
Apparent Right ascension
Unknown
Apparent Declination
Unknown
Sunlit
N/A
Visualization observer readout
Local Sidereal Time
21:57:40
Azimuth
Unknown
Elevation
Unknown
Doppler factor
Unknown
Orbital elements
Apogee altitude
547.388 km
Perigee altitude
545.489 km
Semi-major axis
6,924.576 km
Eccentricity
0.00014
Inclination
97.285°
RAAN
242.1686°
Arg. of periapsis
111.8994°
True anomaly
248.22331°
Mean anomaly
248.2379°
Eccentric anomaly
248.2306°
Mean motion
3.76663 °/min
Orbital period
95.58 mins
BSTAR
-0.00074922
Loading maneuver chart data...
Computing Atmospheric mass density...
Loading historical data...
Loading historical data...
Loading historical data...
Loading historical data...
Loading historical data...
Loading historical data...
Loading historical data...

Documentation

Showing up to 5 results
|